Location: Newark
(12.4436°N, 0.6167°W)
Time: 19:53:50
(UTC+00:00)

Transit 2A - Pass Details

Date: 15 December 2019
Orbit: 601 x 958 km, 66.7° (Epoch: 28 January)

Event Time Altitude Azimuth Distance (km) Brightness Sun altitude
Rises 16:14:26 0° 328° (NNW) 3,007 9.1 17.8°
Reaches altitude 10° 16:16:43 10° 322° (NW) 2,141 8.5 17.3°
Maximum altitude 16:21:21 45° 250° (WSW) 1,005 7.9 16.3°
Drops below altitude 10° 16:26:29 10° 178° (S) 2,363 9.0 15.2°
Sets 16:29:07 0° 172° (S) 3,355 9.6 14.6°
